Location: Kakus Pandan Protected Forest
(2.7500°N, 113.4833°E)
Time: 14:17:29
(UTC+00:00)

Daily predictions for brighter satellites

Satellite Brightness Start Highest point End
(mag) Time Altitude Azimuth Time Altitude Azimuth Time Altitude Azimuth
Cosmos 2315 Rocket 3.9 12:00:06 10° S 12:06:27 70° E 12:12:43 10° N
Okean O Rocket 2.6 12:02:36 10° S 12:06:46 44° WSW 12:10:58 10° NNW
NOSS 3-4 (A) 4.4 12:00:23 10° N 12:08:03 48° ENE 12:11:12 35° ESE
NOSS 3-4 (C) 4.4 12:00:31 10° N 12:08:08 48° ENE 12:11:11 35° ESE
ARIANE 5 DEB (SYLDA) 2.7 12:07:25 10° W 12:10:23 73° S 12:10:43 68° SE
Cosmos 2251 Rocket 3.4 12:06:13 10° N 12:11:33 72° ENE 12:13:05 46° SSE
Okean 1 Rocket 2.9 12:07:51 10° N 12:12:14 86° E 12:13:09 55° S
Okean-O 3.5 12:14:27 35° NE 12:14:27 35° NE 12:17:36 10° N
YAOGAN 1 3.9 12:09:37 10° SSW 12:13:31 36° WSW 12:17:28 10° NW
Meteor 2-5 Rocket 4.0 12:09:11 10° SSW 12:14:40 66° W 12:20:07 10° N
ARIANE 5 R/B 1.6 12:03:45 10° W 12:15:42 83° N 12:16:15 64° ENE
ARIANE 5 DEB (SYLDA 5A) 3.4 12:13:03 10° W 12:14:37 25° WSW 12:14:37 25° WSW
SL-4 R/B 4.3 12:12:28 10° SSW 12:12:39 11° SSW 12:12:39 11° SSW
Cosmos 1238 Rocket 4.4 12:11:18 10° NNW 12:17:40 62° W 12:23:28 11° S
Cosmos 1975 Rocket 4.1 12:15:17 10° SSW 12:19:34 46° W 12:23:49 10° NNW
Meteor 1-24 Rocket 4.0 12:19:43 10° SSW 12:24:56 59° W 12:30:08 10° N
Atlas Centaur 2 3.8 12:22:46 10° NNW 12:26:32 18° NNE 12:27:16 17° NNE
Cosmos 1331 Rocket 4.0 12:29:16 67° NE 12:29:16 67° NE 12:33:57 10° NNE
Meteor 2-10 Rocket 3.4 12:25:39 10° N 12:30:19 70° NE 12:30:19 70° NE
Meteosat 1 Rocket2 4.2 12:25:53 10° NW 12:30:33 34° NNE 12:30:33 34° NNE
H-2A R/B 2.3 12:28:51 10° N 12:33:08 71° NW 12:33:08 71° NW
Meteor 2-12 Rocket 4.3 12:30:04 10° N 12:36:02 69° ENE 12:36:02 69° ENE
Cosmos 1300 4.2 12:34:38 10° NNW 12:37:05 34° NW 12:37:05 34° NW
ARIANE 5 R/B 3.8 12:35:44 10° WSW 12:37:34 15° SW 12:37:34 15° SW
CZ-4 R/B 3.8 12:36:51 14° SW 12:39:01 21° WSW 12:42:09 10° NW
Delta 2 Rocket 3.7 12:32:32 10° WSW 12:39:04 80° SSE 12:39:04 80° SSE
COBE Rocket 4.1 12:40:03 63° WNW 12:40:03 63° WNW 12:44:10 10° NNW
Ariane H10+ 3.2 12:38:25 10° W 12:39:58 38° W 12:39:58 38° W
BREEZE-M DEB (TANK) 4.0 12:27:15 10° SW 12:43:16 87° SE 12:44:01 69° NE
Hubble Space Telescope 3.2 12:43:21 10° W 12:44:49 17° WSW 12:44:49 17° WSW
CSL-04 Debris 4.3 12:47:02 67° WSW 12:47:02 67° WSW 12:52:22 10° NNW
ATLAS 3B CENTAUR R/B 4.0 12:32:29 10° NW 12:48:02 79° NNE 12:52:13 52° ESE
BLOCK DM-SL R/B 3.9 12:45:37 10° W 12:50:28 85° S 21:10:26 10° E
Centaur D AC-28 3.4 12:08:30 10° WNW 13:00:02 80° NNE 13:01:23 67° E
Ariane H10+ 3.7 13:05:40 10° W 13:10:36 84° N 23:14:53 10° E
USA 215 4.5 19:20:12 10° NNE 19:23:39 34° NNE 19:23:39 34° NNE
Ariane H10+ 3.7 19:47:17 48° SSE 19:47:17 48° SSE 20:01:31 10° ESE
SL-16 R/B 3.1 19:48:41 10° N 19:53:49 44° ENE 19:53:49 44° ENE
Cosmos 1844 Rocket 3.5 20:01:16 45° NNE 20:01:16 45° NNE 20:05:02 10° NNE
Milstar 3 Cent rocket 4.1 20:02:17 17° N 20:02:17 17° N 20:04:20 10° NNE
NOSS 3-1 (C) 3.9 20:07:55 41° NE 20:07:55 41° NE 20:11:06 10° NNE
CZ-4C R/B 2.8 20:22:36 34° NNE 20:22:36 34° NNE 20:25:09 10° NNE
Meteor 2-4 Rocket 4.3 20:18:17 10° NNW 20:22:21 45° NNW 20:22:21 45° NNW
NOSS 3-1 (A) 3.6 20:23:55 43° SE 20:24:30 46° ESE 20:29:11 10° NE
CZ-4B R/B 4.5 20:20:32 10° NNE 20:25:05 40° ESE 20:26:51 29° SSE
Lacrosse 4 Rocket 4.0 20:25:00 10° NNW 20:25:16 12° NNW 20:25:16 12° NNW
ATLAS 5 CENTAUR R/B 3.4 20:26:39 36° SSW 20:30:03 50° SE 21:00:34 10° ENE
CZ-2C R/B 3.7 20:31:44 11° ESE 20:31:44 11° ESE 20:31:59 10° ESE
CZ-2C R/B 4.2 20:29:44 10° NE 20:34:01 35° ESE 20:37:30 15° SSE
ARIANE 5 DEB (SYLDA) 4.2 20:38:15 34° SSE 20:38:15 34° SSE 20:45:59 10° E
SWIFT 3.4 20:40:58 33° SE 20:40:58 33° SE 20:43:30 10° SE
ARIANE 5 R/B 4.4 20:37:49 10° NNW 20:39:17 16° NW 20:39:17 16° NW
Envisat 2.8 20:36:58 10° N 20:42:02 86° WNW 20:43:22 51° SSW
NOSS 2-2 (E) 3.8 20:41:29 54° SSE 20:42:13 64° ESE 20:45:59 10° NNE
Meteor 2-9 Rocket 4.2 20:42:54 26° S 20:46:17 84° E 20:51:56 10° N
CZ-2C R/B 2.7 20:44:43 10° N 20:48:42 78° WNW 20:48:44 78° W
SL-08 R/B 4.2 20:46:44 10° SSE 20:51:25 52° ENE 20:56:08 10° N
BREEZE-M DEB (TANK) 4.5 20:55:40 28° S 20:55:40 28° S 21:00:32 10° SSE
NOAA 11 4.3 21:00:28 10° NNE 21:05:53 78° ESE 21:11:20 10° S
Nadezhda 4 Rocket 4.0 21:01:18 10° S 21:07:33 83° E 21:13:43 10° N
ASTRO E2 3.7 21:08:47 28° SSW 21:08:47 28° SSW 21:11:34 10° SSE
Cosmos 1862 Rocket 4.1 21:05:40 10° NNW 21:09:37 35° W 21:10:01 35° WSW
DELTA 2 DEB (DPAF) 4.2 21:07:01 18° S 21:10:05 49° WSW 21:14:20 10° NNW
H-2A R/B 3.1 21:09:05 10° N 21:12:40 41° W 21:13:33 35° WSW
ARIANE 5 R/B 3.3 21:12:24 28° WSW 21:14:49 77° S 21:40:00 10° E
Meteor 1-4 Rocket 3.0 21:13:19 10° S 21:16:45 59° E 21:20:14 10° NNE
PSLV R/B 4.4 21:14:39 10° NNW 21:18:16 29° WNW 21:19:14 26° WSW
Cosmos 1680 Rocket 4.5 21:18:07 24° WSW 21:19:37 28° WNW 21:24:05 10° NNW
Meteor 2-15 Rocket 4.4 21:14:19 10° N 21:20:25 75° W 21:26:30 10° S
BREEZE-M R/B 4.5 21:15:57 10° NNW 21:20:27 33° NE 21:23:12 10° ESE
MINOTAUR 4 R/B 4.3 21:18:07 10° SSE 21:21:37 70° ENE 21:25:05 10° N
Spelda 4.1 21:22:39 23° SW 21:23:36 27° S 21:25:52 10° SE
APEX 2.3 21:21:05 10° NNW 21:23:46 60° WSW 21:26:48 10° S
Sakura Rocket 2.8 21:21:06 10° NW 21:24:50 69° NNE 21:28:27 10° ESE
DELTA 4 R/B 3.8 21:22:48 10° NNW 21:25:07 26° NE 21:30:37 10° E
NOSS 2-2 (D) 3.8 21:23:02 21° SW 21:25:55 47° WNW 21:29:34 10° N
ARIANE 44L R/B 2.5 21:19:09 14° W 21:26:03 68° SSW 21:28:37 10° ESE
Okean 3 3.6 21:23:32 10° N 21:27:39 72° E 21:31:48 10° S
Cosmos 2278 Rocket 3.0 21:22:47 10° S 21:28:17 51° ESE 21:33:44 10° NNE
Meteor 2-14 Rocket 4.4 21:23:06 10° SSW 21:29:03 62° W 21:35:03 10° N
Cosmos 2242 Rocket 4.2 21:25:31 10° N 21:29:57 61° E 21:34:28 10° SSE
CZ-3B Rocket 3.0 21:30:54 18° WSW 21:32:48 23° SSW 21:35:55 10° SE
ARIANE 3 DEB 3.5 21:28:29 11° WNW 21:33:48 48° N 21:36:46 10° ENE
Meteor 2-21 Rocket 4.4 21:28:06 10° S 21:34:11 87° W 21:40:17 10° N
Aureole 3 Rocket 4.1 21:33:32 10° NNE 21:37:08 47° E 21:41:59 10° SSE
CZ-4B R/B 4.0 21:34:13 10° N 21:38:37 82° W 21:42:55 10° SSW
Okean 1-7 3.2 21:36:56 10° NNW 21:41:07 49° W 21:45:21 10° S
Cosmos 2084 3.8 21:37:33 10° NW 21:41:54 49° WSW 21:46:27 10° S
Cosmos 292 Rocket 3.7 21:38:15 10° NNW 21:43:02 74° WSW 21:47:51 10° S
OAO 2 Rocket 4.4 21:40:18 12° W 21:44:18 31° NW 21:48:43 10° NNE
DELTA 2 R/B(2) 3.3 21:43:14 18° SW 21:44:30 85° NW 21:47:31 10° NE
ARIANE 5 R/B 2.0 21:43:06 14° W 21:45:01 84° S 21:51:31 10° E
USA 229 DEB 4.1 21:42:15 11° SW 21:47:36 37° WNW 21:53:14 10° N
USA 229 4.1 21:42:15 11° SW 21:47:41 37° WNW 21:53:21 10° N
Cosmos 1842 3.2 21:45:15 10° N 21:49:06 66° W 21:52:59 10° S
H-2A R/B 3.7 21:44:56 10° NE 21:49:23 34° ESE 21:53:47 10° SSE
Cosmos 1943 3.3 21:45:18 10° NNW 21:50:46 56° WSW 21:56:16 10° S
Cosmos 1975 4.2 21:48:35 10° SW 21:51:37 20° W 21:54:38 10° NW
ARIANE 5 R/B 4.3 21:17:44 13° W 21:52:40 56° S 21:59:00 10° ESE
Cosmos 2279 Rocket 4.3 21:48:15 10° NNW 21:54:04 44° W 21:59:54 10° SSW
Cosmos 1092 Rocket 4.0 21:48:05 10° S 21:54:14 69° W 22:00:19 10° N
Ariane H10 3.7 21:51:21 10° WSW 21:54:28 28° S 21:57:10 10° ESE
Delta 198 3.7 21:51:20 10° WSW 21:56:19 68° NNW 22:00:31 10° ENE
Genesis I 3.4 21:53:34 10° SW 21:57:18 53° WNW 22:01:09 10° N
ADEOS 4.2 21:54:05 10° NNE 21:59:13 60° ESE 22:04:21 10° S
Cosmos 1939 Rocket 2.7 21:55:53 10° N 21:59:40 66° W 22:03:29 10° SSW
Cosmos 2292 Rocket 3.6 21:57:49 10° SSW 22:00:29 27° W 22:03:02 10° NNW
USA 81 4.3 21:56:35 10° NNW 22:01:37 48° W 22:06:41 10° SSW
ARIANE 44L R/B 3.3 21:51:19 10° W 22:02:31 51° SSW 22:05:29 10° ESE
Cosmos 1603 4.0 22:01:54 10° NW 22:07:16 44° WSW 22:12:37 10° S
